FW8685 Weather Reports


time (UTC)temp
F
wind
direction
speed
knots
gust
knots
rain 1hr
in
rain 24hr
in
rain mn
in
humidity
%
barometer
mb
20260904175524 97 110 7.8 17.4 0.00 0.00 0.00 48 1011.0
20260904175024 96 111 8.7 15.6 0.00 0.00 0.00 48 1011.0
20260904174550 96 146 9.6 15.6 0.00 0.00 0.00 48 1011.2
20260904174025 96 100 8.7 14.8 0.00 0.00 0.00 48 1011.1
20260904173523 96 118 7.0 11.3 0.00 0.00 0.00 49 1011.1
20260904173103 95 111 7.0 16.5 0.00 0.00 0.00 49 1011.3
20260904172524 96 117 9.6 16.5 0.00 0.00 0.00 49 1011.3
20260904172024 95 150 7.0 13.0 0.00 0.00 0.00 50 1011.3
20260904171552 95 141 5.2 13.0 0.00 0.00 0.00 51 1011.4
20260904171026 95 110 7.8 15.6 0.00 0.00 0.00 50 1011.4
20260904170525 94 102 8.7 15.6 0.00 0.00 0.00 50 1011.5
20260904170047 94 120 7.8 14.8 0.00 0.00 0.00 51 1011.5
20260904165525 94 81 7.0 15.6 0.00 0.00 0.00 52 1011.7
20260904165024 93 131 6.1 17.4 0.00 0.00 0.00 51 1011.7
20260904164553 94 113 10.4 17.4 0.00 0.00 0.00 52 1011.7
20260904164025 93 107 9.6 16.5 0.00 0.00 0.00 52 1011.6
20260904163524 93 105 7.8 13.9 0.00 0.00 0.00 53 1011.7
20260904163043 92 101 7.0 13.9 0.00 0.00 0.00 53 1011.6
20260904162524 93 132 10.4 13.9 0.00 0.00 0.00 53 1011.6
20260904162025 92 135 7.8 13.9 0.00 0.00 0.00 54 1011.5
20260904161542 92 126 6.1 13.9 0.00 0.00 0.00 55 1011.5
20260904161025 92 113 8.7 13.9 0.00 0.00 0.00 54 1011.7
20260904160523 91 128 6.1 12.2 0.00 0.00 0.00 55 1011.5
20260904160046 91 140 5.2 12.2 0.00 0.00 0.00 56 1011.5
20260904155525 90 138 5.2 12.2 0.00 0.00 0.00 56 1011.6
20260904155024 90 149 7.8 13.0 0.00 0.00 0.00 56 1011.5
20260904154544 90 114 7.0 13.0 0.00 0.00 0.00 57 1011.6
20260904154028 90 113 7.0 13.0 0.00 0.00 0.00 57 1011.6
20260904153524 89 138 7.8 13.0 0.00 0.00 0.00 57 1011.8
20260904153043 89 110 7.0 13.0 0.00 0.00 0.00 58 1011.7
20260904152524 89 123 8.7 13.9 0.00 0.00 0.00 58 1011.8
20260904152024 88 146 7.8 14.8 0.00 0.00 0.00 59 1011.8
20260904151548 88 146 9.6 14.8 0.00 0.00 0.00 59 1011.9
20260904151028 88 146 7.0 15.6 0.00 0.00 0.00 59 1011.9
20260904150524 88 140 8.7 15.6 0.00 0.00 0.00 60 1011.8
20260904150104 87 139 8.7 15.6 0.00 0.00 0.00 60 1011.9
20260904145524 87 119 9.6 15.6 0.00 0.00 0.00 61 1011.9
20260904145027 86 113 9.6 16.5 0.00 0.00 0.00 62 1011.8
20260904144545 86 120 10.4 16.5 0.00 0.00 0.00 62 1011.8
20260904144024 86 111 9.6 16.5 0.00 0.00 0.00 62 1011.7
20260904143525 85 96 7.8 12.2 0.00 0.00 0.00 64 1011.7
20260904143044 85 125 7.8 13.0 0.00 0.00 0.00 65 1011.8
20260904142523 84 100 8.7 16.5 0.00 0.00 0.00 65 1011.8
20260904142023 84 115 7.8 16.5 0.00 0.00 0.00 66 1011.9
20260904141548 83 114 10.4 15.6 0.00 0.00 0.00 68 1011.9
20260904141024 82 109 8.7 13.9 0.00 0.00 0.00 69 1011.9
20260904140524 82 108 6.1 13.0 0.00 0.00 0.00 70 1011.8
20260904140046 81 112 7.8 13.0 0.00 0.00 0.00 72 1011.8
20260904135524 81 113 7.0 11.3 0.00 0.00 0.00 73 1011.7
20260904135024 80 119 7.0 11.3 0.00 0.00 0.00 74 1011.7
20260904134553 79 100 7.0 11.3 0.00 0.00 0.00 75 1011.7
20260904134024 79 120 6.1 10.4 0.00 0.00 0.00 77 1011.6
20260904133525 78 105 7.0 10.4 0.00 0.00 0.00 78 1011.5
20260904133050 77 111 7.0 11.3 0.00 0.00 0.00 79 1011.4
20260904132526 77 110 7.8 11.3 0.00 0.00 0.00 80 1011.4
20260904132024 76 105 7.0 11.3 0.00 0.00 0.00 81 1011.5
20260904131546 76 103 7.0 11.3 0.00 0.00 0.00 83 1011.4
20260904131024 75 104 7.0 10.4 0.00 0.00 0.00 84 1011.3
20260904130528 75 105 7.0 10.4 0.00 0.00 0.00 84 1011.3
20260904130045 74 91 6.1 9.6 0.00 0.00 0.00 86 1011.3
20260904125524 74 115 7.0 9.6 0.00 0.00 0.00 86 1011.3
20260904125025 73 109 6.1 8.7 0.00 0.00 0.00 86 1011.3
20260904124544 73 107 5.2 8.7 0.00 0.00 0.00 87 1011.1
20260904124027 73 104 5.2 8.7 0.00 0.00 0.00 87 1011.2
20260904123525 72 91 6.1 8.7 0.00 0.00 0.00 88 1011.0
20260904123046 72 92 5.2 8.7 0.00 0.00 0.00 88 1011.0
20260904122525 72 101 5.2 8.7 0.00 0.00 0.00 88 1011.0
20260904122025 72 94 6.1 7.8 0.00 0.00 0.00 87 1010.9
20260904121544 72 94 4.3 7.8 0.00 0.00 0.00 87 1010.8
20260904121024 72 96 4.3 7.8 0.00 0.00 0.00 87 1010.7
20260904120525 72 96 4.3 7.8 0.00 0.00 0.00 87 1010.8
20260904120044 72 100 3.5 6.1 0.00 0.00 0.00 87 1010.6
20260904115527 72 102 3.5 7.0 0.00 0.00 0.00 87 1010.7
20260904115023 72 103 3.5 7.0 0.00 0.00 0.00 86 1010.5
20260904114546 72 98 3.5 5.2 0.00 0.00 0.00 86 1010.5
20260904114024 72 97 2.6 5.2 0.00 0.00 0.00 86 1010.6
20260904113525 72 105 1.7 5.2 0.00 0.00 0.00 86 1010.7
20260904113049 72 96 2.6 5.2 0.00 0.00 0.00 86 1010.7
20260904112524 72 96 2.6 5.2 0.00 0.00 0.00 86 1010.6
20260904112025 72 93 2.6 5.2 0.00 0.00 0.00 85 1010.7
20260904111546 73 101 2.6 5.2 0.00 0.00 0.00 85 1010.8
20260904111024 73 96 2.6 6.1 0.00 0.00 0.00 85 1010.7
20260904110524 73 101 2.6 6.1 0.00 0.00 0.00 84 1010.6
20260904110043 73 109 3.5 5.2 0.00 0.00 0.00 84 1010.5
20260904105527 73 103 2.6 5.2 0.00 0.00 0.00 84 1010.4
20260904105024 73 98 2.6 5.2 0.00 0.00 0.00 83 1010.6
20260904104543 73 112 2.6 5.2 0.00 0.00 0.00 83 1010.6
20260904104025 73 113 2.6 5.2 0.00 0.00 0.00 83 1010.7
20260904103525 73 106 2.6 5.2 0.00 0.00 0.00 83 1010.5
20260904103046 73 107 2.6 6.1 0.00 0.00 0.00 83 1010.6
20260904102526 74 113 2.6 6.1 0.00 0.00 0.00 82 1010.6
20260904102023 74 111 3.5 7.0 0.00 0.00 0.00 82 1010.6
20260904101546 74 112 4.3 7.0 0.00 0.00 0.00 82 1010.4
20260904101023 74 109 4.3 7.0 0.00 0.00 0.00 81 1010.4
20260904100523 74 98 3.5 7.0 0.00 0.00 0.00 81 1010.4
20260904100042 74 104 4.3 7.0 0.00 0.00 0.00 81 1010.5
20260904095526 74 113 3.5 7.0 0.00 0.00 0.00 81 1010.4
20260904095021 74 105 4.3 7.0 0.00 0.00 0.00 81 1010.5
20260904094545 75 107 4.3 7.0 0.00 0.00 0.00 80 1010.3
20260904094025 75 106 3.5 6.1 0.00 0.00 0.00 80 1010.4
20260904093524 75 102 2.6 6.1 0.00 0.00 0.00 79 1010.3
20260904093046 75 104 3.5 7.0 0.00 0.00 0.00 79 1010.4
20260904092523 75 108 3.5 7.0 0.00 0.00 0.00 79 1010.4
20260904092024 75 111 3.5 7.0 0.00 0.00 0.00 79 1010.3
20260904091544 75 93 4.3 7.0 0.00 0.00 0.00 78 1010.2
20260904091025 76 105 3.5 6.1 0.00 0.00 0.00 77 1010.2
20260904090525 76 118 2.6 5.2 0.00 0.00 0.00 77 1010.2
20260904090043 76 107 3.5 5.2 0.00 0.00 0.00 76 1010.1
20260904085525 76 121 3.5 6.1 0.00 0.00 0.00 76 1010.1
20260904085022 77 111 3.5 6.1 0.00 0.00 0.00 75 1010.1
20260904084542 77 116 3.5 5.2 0.00 0.00 0.00 75 1010.0
20260904084024 77 119 2.6 6.1 0.00 0.00 0.00 75 1010.1
20260904083524 77 127 2.6 7.0 0.00 0.00 0.00 74 1010.2
20260904083047 77 123 2.6 7.0 0.00 0.00 0.00 74 1010.2
20260904082526 78 123 3.5 7.0 0.00 0.00 0.00 74 1010.1
20260904082027 78 115 3.5 7.0 0.00 0.00 0.00 73 1010.1
20260904081543 78 123 3.5 7.0 0.00 0.00 0.00 73 1010.2
20260904081023 78 101 3.5 7.8 0.00 0.00 0.00 72 1010.1
20260904080524 79 131 3.5 7.8 0.00 0.00 0.00 72 1010.0
20260904080049 79 121 3.5 7.0 0.00 0.00 0.00 72 1010.1
20260904075520 79 114 4.3 7.8 0.00 0.00 0.00 71 1010.2
20260904075024 79 109 4.3 7.8 0.00 0.00 0.00 71 1010.2
20260904074546 79 131 3.5 7.8 0.00 0.00 0.00 71 1010.2
20260904074025 80 150 4.3 7.8 0.00 0.00 0.00 70 1010.3
20260904073522 80 143 3.5 10.4 0.00 0.00 0.00 70 1010.3
20260904073048 80 153 5.2 11.3 0.00 0.00 0.00 70 1010.4
20260904072523 80 119 5.2 11.3 0.00 0.00 0.00 70 1010.4
20260904072027 80 151 5.2 12.2 0.00 0.00 0.00 70 1010.3
20260904071544 80 130 7.8 13.0 0.00 0.00 0.00 69 1010.3
20260904071025 80 135 7.8 13.0 0.00 0.00 0.00 69 1010.2
20260904070525 80 130 7.0 12.2 0.00 0.00 0.00 69 1010.2
20260904070052 80 121 7.8 12.2 0.00 0.00 0.00 69 1010.1
20260904065525 80 132 7.8 12.2 0.00 0.00 0.00 69 1010.1
20260904065024 80 134 7.8 13.0 0.00 0.00 0.00 69 1010.2
20260904064546 80 110 7.0 13.0 0.00 0.00 0.00 69 1010.2
20260904064024 80 119 7.0 13.0 0.00 0.00 0.00 69 1010.2
20260904063523 80 115 7.0 13.0 0.00 0.00 0.00 70 1010.2
20260904063043 80 129 7.0 13.0 0.00 0.00 0.00 70 1010.1
20260904062524 80 128 6.1 13.0 0.00 0.00 0.00 70 1010.0
20260904062024 80 131 7.8 14.8 0.00 0.00 0.00 70 1010.0
20260904061542 80 127 8.7 14.8 0.00 0.00 0.00 71 1010.0
20260904061024 80 116 6.1 13.0 0.00 0.00 0.00 71 1010.0
20260904060524 80 146 6.1 13.0 0.00 0.00 0.00 71 1010.1
20260904060046 80 121 7.0 13.0 0.00 0.00 0.00 71 1009.9
20260904055523 80 124 6.1 12.2 0.00 0.00 0.00 71 1009.9
20260904055024 80 124 6.1 12.2 0.00 0.00 0.00 71 1009.9
20260904054546 80 116 7.0 11.3 0.00 0.00 0.00 71 1009.9
20260904054021 80 121 6.1 11.3 0.00 0.00 0.00 71 1009.9
20260904053524 80 136 7.8 11.3 0.00 0.00 0.00 71 1009.9
20260904053042 80 111 6.1 10.4 0.00 0.00 0.00 71 1009.8
20260904052527 80 108 5.2 8.7 0.00 0.00 0.00 71 1009.7
20260904052024 80 114 4.3 8.7 0.00 0.00 0.00 70 1009.8
20260904051541 81 105 5.2 8.7 0.00 0.00 0.00 70 1009.9
20260904051021 81 121 4.3 10.4 0.00 0.00 0.00 70 1009.9
20260904050523 81 134 4.3 10.4 0.00 0.00 0.00 70 1009.8
20260904050046 81 129 6.1 10.4 0.00 0.00 0.00 70 1009.7
20260904045525 81 109 5.2 10.4 0.00 0.00 0.00 69 1009.6
20260904045024 81 113 7.0 10.4 0.00 0.00 0.00 69 1009.7
20260904044545 81 105 6.1 13.9 0.00 0.00 0.00 69 1009.6
20260904044023 82 102 7.0 13.9 0.00 0.00 0.00 69 1009.5
20260904043525 82 107 8.7 13.9 0.00 0.00 0.00 68 1009.5
20260904043050 82 101 8.7 13.9 0.00 0.00 0.00 68 1009.5
20260904042523 82 121 7.8 12.2 0.00 0.00 0.00 68 1009.6
20260904042024 82 102 7.0 13.0 0.00 0.00 0.00 68 1009.5
20260904041543 82 106 8.7 13.0 0.00 0.00 0.00 68 1009.6
20260904041023 82 109 7.0 11.3 0.00 0.00 0.00 67 1009.6
20260904040525 82 96 7.0 11.3 0.00 0.00 0.00 67 1009.6
20260904040058 82 108 7.8 13.0 0.00 0.00 0.00 67 1009.6
20260904035523 83 101 7.0 13.0 0.00 0.00 0.00 67 1009.6
20260904035025 83 98 7.0 9.6 0.00 0.00 0.00 67 1009.7
20260904034550 83 102 7.0 9.6 0.00 0.00 0.00 66 1009.7
20260904034024 83 100 6.1 11.3 0.00 0.00 0.00 66 1009.8
20260904033525 83 111 7.0 11.3 0.00 0.00 0.00 66 1009.8
20260904033047 83 100 7.0 11.3 0.00 0.00 0.00 65 1009.8
20260904032524 84 107 7.0 9.6 0.00 0.00 0.00 65 1009.8
20260904032025 84 113 6.1 9.6 0.00 0.00 0.00 65 1009.7
20260904031544 84 103 6.1 11.3 0.00 0.00 0.00 64 1009.7
20260904031025 84 105 6.1 11.3 0.00 0.00 0.00 64 1009.7
20260904030521 85 105 7.0 11.3 0.00 0.00 0.00 63 1009.8
20260904030044 85 105 6.1 8.7 0.00 0.00 0.00 63 1009.6
20260904025524 85 105 5.2 11.3 0.00 0.00 0.00 63 1009.7
20260904025024 85 96 7.0 11.3 0.00 0.00 0.00 62 1009.6
20260904024548 86 109 7.0 11.3 0.00 0.00 0.00 62 1009.7
20260904024024 86 103 7.8 11.3 0.00 0.00 0.00 61 1009.6
20260904023526 86 111 7.0 11.3 0.00 0.00 0.00 61 1009.6
20260904023056 86 96 7.0 10.4 0.00 0.00 0.00 60 1009.6
20260904022523 86 101 7.0 12.2 0.00 0.00 0.00 60 1009.5
20260904022024 87 105 7.0 13.9 0.00 0.00 0.00 60 1009.3
20260904021543 87 101 8.7 13.9 0.00 0.00 0.00 59 1009.3
20260904021024 87 103 8.7 13.9 0.00 0.00 0.00 59 1009.3
20260904020524 87 107 7.8 13.9 0.00 0.00 0.00 58 1009.2
20260904020042 88 107 7.8 12.2 0.00 0.00 0.00 58 1009.2
20260904015528 88 115 7.8 12.2 0.00 0.00 0.00 57 1009.0
20260904015024 88 116 8.7 12.2 0.00 0.00 0.00 57 1008.9
20260904014558 89 114 8.7 13.9 0.00 0.00 0.00 56 1008.8
20260904014027 89 109 8.7 13.9 0.00 0.00 0.00 56 1008.7
20260904013524 89 106 9.6 13.9 0.00 0.00 0.00 55 1008.6
20260904013048 89 115 9.6 16.5 0.00 0.00 0.00 55 1008.5
20260904012523 90 123 11.3 16.5 0.00 0.00 0.00 54 1008.3
20260904012025 90 104 11.3 15.6 0.00 0.00 0.00 53 1008.2
20260904011544 90 105 8.7 14.8 0.00 0.00 0.00 53 1008.2
20260904011024 90 110 8.7 14.8 0.00 0.00 0.00 52 1008.0
20260904010524 91 95 8.7 16.5 0.00 0.00 0.00 51 1008.0
20260904010051 91 107 10.4 16.5 0.00 0.00 0.00 51 1008.0
20260904005523 92 112 9.6 13.9 0.00 0.00 0.00 50 1008.0
20260904005025 92 111 7.8 11.3 0.00 0.00 0.00 49 1008.0
20260904004546 92 93 7.8 11.3 0.00 0.00 0.00 49 1007.9
20260904004024 93 98 7.0 12.2 0.00 0.00 0.00 48 1007.8
20260904003525 93 107 7.0 12.2 0.00 0.00 0.00 47 1007.8
20260904003046 94 105 7.8 11.3 0.00 0.00 0.00 46 1007.7
20260904002524 94 110 7.0 13.0 0.00 0.00 0.00 45 1007.7
20260904002024 95 109 8.7 14.8 0.00 0.00 0.00 44 1007.6
20260904001545 95 104 9.6 15.6 0.00 0.00 0.00 44 1007.7
20260904001023 95 91 8.7 17.4 0.00 0.00 0.00 43 1007.6
20260904000526 96 111 9.6 17.4 0.00 0.00 0.00 43 1007.6
20260904000044 96 107 9.6 16.5 0.00 0.00 0.00 42 1007.6
20260903235524 96 144 7.0 16.5 0.00 0.00 0.00 42 1007.6
20260903235024 96 120 8.7 14.8 0.00 0.00 0.00 41 1007.5
20260903234547 97 125 8.7 15.6 0.00 0.00 0.00 41 1007.5
20260903234024 97 127 10.4 19.1 0.00 0.00 0.00 41 1007.5
20260903233526 97 110 12.2 19.1 0.00 0.00 0.00 40 1007.5
20260903233051 97 124 11.3 17.4 0.00 0.00 0.00 40 1007.5
20260903232524 98 118 10.4 18.2 0.00 0.00 0.00 39 1007.5
20260903232026 98 108 10.4 18.2 0.00 0.00 0.00 38 1007.5
20260903231548 98 117 10.4 17.4 0.00 0.00 0.00 38 1007.4
20260903231026 98 115 9.6 17.4 0.00 0.00 0.00 38 1007.5
20260903230528 99 113 10.4 17.4 0.00 0.00 0.00 38 1007.5
20260903230053 99 111 10.4 17.4 0.00 0.00 0.00 38 1007.5
20260903225526 99 117 11.3 17.4 0.00 0.00 0.00 38 1007.5
20260903225023 99 107 8.7 14.8 0.00 0.00 0.00 37 1007.4
20260903224605 99 117 8.7 20.9 0.00 0.00 0.00 37 1007.5
20260903224025 99 124 8.7 20.9 0.00 0.00 0.00 36 1007.5
20260903223524 99 106 10.4 20.0 0.00 0.00 0.00 36 1007.5
20260903223042 100 120 9.6 17.4 0.00 0.00 0.00 37 1007.4
20260903222528 100 111 9.6 16.5 0.00 0.00 0.00 37 1007.4
20260903222026 100 125 10.4 17.4 0.00 0.00 0.00 36 1007.3
20260903221542 100 107 11.3 17.4 0.00 0.00 0.00 36 1007.4
20260903221023 100 124 12.2 17.4 0.00 0.00 0.00 35 1007.4
20260903220523 100 117 8.7 16.5 0.00 0.00 0.00 35 1007.4
20260903220048 100 117 10.4 17.4 0.00 0.00 0.00 34 1007.4
20260903215535 101 107 10.4 17.4 0.00 0.00 0.00 35 1007.6
20260903215025 101 90 10.4 17.4 0.00 0.00 0.00 35 1007.6
20260903214605 101 131 8.7 17.4 0.00 0.00 0.00 34 1007.7
20260903214024 101 110 9.6 17.4 0.00 0.00 0.00 34 1007.6
20260903213525 101 96 11.3 17.4 0.00 0.00 0.00 33 1007.8
20260903213050 101 106 10.4 16.5 0.00 0.00 0.00 34 1007.8
20260903212528 101 94 9.6 16.5 0.00 0.00 0.00 36 1007.8
20260903212026 101 98 8.7 17.4 0.00 0.00 0.00 36 1007.8
20260903211543 100 126 10.4 19.1 0.00 0.00 0.00 37 1007.9
20260903211025 100 94 12.2 19.1 0.00 0.00 0.00 36 1008.0
20260903210524 101 101 12.2 17.4 0.00 0.00 0.00 37 1008.0
20260903210111 101 92 11.3 21.7 0.00 0.00 0.00 36 1008.1
20260903205525 101 98 12.2 21.7 0.00 0.00 0.00 38 1008.1
20260903205024 101 119 10.4 17.4 0.00 0.00 0.00 36 1008.3
20260903204548 100 106 10.4 18.2 0.00 0.00 0.00 38 1008.3
20260903204025 101 78 10.4 18.2 0.00 0.00 0.00 37 1008.4
20260903203525 100 123 11.3 18.2 0.00 0.00 0.00 37 1008.3
20260903203105 100 113 10.4 20.0 0.00 0.00 0.00 37 1008.5
20260903202524 100 100 13.9 20.0 0.00 0.00 0.00 37 1008.5
20260903202024 100 111 10.4 17.4 0.00 0.00 0.00 37 1008.6
20260903201548 100 117 10.4 21.7 0.00 0.00 0.00 37 1008.6
20260903201024 100 143 9.6 21.7 0.00 0.00 0.00 37 1008.7
20260903200523 100 112 14.8 21.7 0.00 0.00 0.00 38 1008.6
20260903200052 100 124 11.3 21.7 0.00 0.00 0.00 38 1008.7
20260903195525 100 134 10.4 17.4 0.00 0.00 0.00 36 1008.7
20260903195023 100 126 11.3 15.6 0.00 0.00 0.00 39 1008.7
20260903194542 99 94 11.3 19.1 0.00 0.00 0.00 39 1008.8
20260903194025 99 111 13.0 20.9 0.00 0.00 0.00 39 1008.9
20260903193522 100 106 10.4 20.9 0.00 0.00 0.00 39 1009.0
20260903193046 100 115 9.6 18.2 0.00 0.00 0.00 39 1009.0
20260903192525 99 113 10.4 20.0 0.00 0.00 0.00 40 1009.1
20260903192024 98 110 10.4 20.9 0.00 0.00 0.00 41 1009.1
20260903191545 99 115 11.3 20.9 0.00 0.00 0.00 40 1009.2
20260903191024 98 119 11.3 20.0 0.00 0.00 0.00 40 1009.3
20260903190524 98 119 11.3 17.4 0.00 0.00 0.00 42 1009.4
20260903190045 98 108 11.3 17.4 0.00 0.00 0.00 42 1009.4
20260903185525 98 98 12.2 17.4 0.00 0.00 0.00 41 1009.4
20260903185024 99 118 9.6 17.4 0.00 0.00 0.00 41 1009.6
20260903184548 99 92 8.7 14.8 0.00 0.00 0.00 41 1009.6
20260903184026 99 146 9.6 16.5 0.00 0.00 0.00 41 1009.7
20260903183524 98 124 10.4 16.5 0.00 0.00 0.00 41 1009.9
20260903183049 98 121 12.2 20.0 0.00 0.00 0.00 43 1009.9
20260903182525 97 136 9.6 20.0 0.00 0.00 0.00 42 1010.0
20260903182023 97 139 9.6 18.2 0.00 0.00 0.00 43 1010.0
20260903181544 97 155 11.3 18.2 0.00 0.00 0.00 43 1010.2
20260903181023 97 99 11.3 18.2 0.00 0.00 0.00 42 1010.2
20260903180525 98 101 7.0 18.2 0.00 0.00 0.00 44 1010.2
20260903180046 96 107 11.3 20.0 0.00 0.00 0.00 46 1010.3